Knox, IN

7:29 PM CDT on April 29, 2017 (GMT -0500)
Starke County

Weather History for KOXI - January, 2013

Change the Weather History Date:

Wednesday, January 9, 2013

  Actual Average (KRCR) Record (KRCR)
Temperature  
Mean Temperature 38 °F -  
Max Temperature 48 °F 27 °F 46 °F (2016)
Min Temperature 28 °F 10 °F 1 °F (2014)
Degree Days  
Heating Degree Days 27    
Moisture  
Dew Point 28 °F    
Average Humidity 69    
Maximum Humidity 86    
Minimum Humidity 40    
Precipitation  
Precipitation 0.00 in - - ()
Sea Level Pressure  
Sea Level Pressure 30.27 in    
Wind  
Wind Speed 13 mph (WSW)    
Max Wind Speed 18 mph    
Max Gust Speed 25 mph    
Visibility 10 miles    
Events      
Averages and records for this station are not official NWS values.
T = Trace of Precipitation, MM = Missing Value Source: NWS Daily Summary

Daily Weather History Graph

Daily Weather History Graph

Search for Another Location

Airport or City:

Trip Planner

Search our weather history database for the weather conditions in past years. The results will help you decide how hot, cold, wet, or windy it might be!

Date:

Astronomy

Jan. 09, 2013 Rise Set
Actual Time 7:12 AM CST 4:36 PM CST
Civil Twilight 6:41 AM CST 5:06 PM CST
Nautical Twilight 6:06 AM CST 5:41 PM CST
Astronomical Twilight 5:33 AM CST 6:14 PM CST
Moon 4:50 AM CST (1/9) 2:37 PM CST (1/9)
Length of Visible Light 10h 25m
Length of Day
9h 23m
Waning Crescent, 6% of the Moon is Illuminated
Jan 9
Waning Crescent
Jan 11
New
Jan 18
First Quarter
Jan 26
Full
Feb 3
Last Quarter

Hourly Weather History & Observations

Time (CST) Temp. Windchill Dew Point Humidity Pressure Visibility Wind Dir Wind Speed Gust Speed Precip Events Conditions
12:15 AM 36.7 °F 26.9 °F 28.9 °F 74% 30.07 in 10.0 mi South 17.3 mph - N/A   Mostly Cloudy
12:35 AM 36.3 °F 28.4 °F 28.8 °F 74% 30.07 in 10.0 mi SSW 11.5 mph - N/A   Clear
12:55 AM 35.8 °F 28.3 °F 28.8 °F 76% 30.07 in 10.0 mi SSW 10.4 mph - N/A   Clear
1:15 AM 36.9 °F 28.2 °F 29.5 °F 75% 30.07 in 10.0 mi SSW 13.8 mph - N/A   Mostly Cloudy
1:35 AM 37.6 °F 29.1 °F 30.2 °F 75% 30.06 in 10.0 mi SSW 13.8 mph 19.6 mph N/A   Overcast
1:55 AM 38.1 °F 29.1 °F 30.6 °F 74% 30.08 in 10.0 mi SSW 16.1 mph - N/A   Scattered Clouds
2:15 AM 38.3 °F 29.0 °F 30.9 °F 75% 30.08 in 10.0 mi SW 17.3 mph 23.0 mph N/A   Mostly Cloudy
2:35 AM 38.8 °F 30.8 °F 31.3 °F 74% 30.08 in 10.0 mi SW 13.8 mph 21.9 mph N/A   Overcast
2:55 AM 38.8 °F 30.4 °F 31.6 °F 75% 30.08 in 10.0 mi SW 15.0 mph 20.7 mph N/A   Overcast
3:15 AM 39.0 °F 31.0 °F 32.0 °F 76% 30.08 in 10.0 mi SW 13.8 mph - N/A   Overcast
3:35 AM 38.8 °F 30.8 °F 32.0 °F 76% 30.07 in 10.0 mi SW 13.8 mph - N/A   Overcast
3:55 AM 39.2 °F 32.0 °F 32.0 °F 75% 30.08 in 10.0 mi SW 11.5 mph 18.4 mph N/A   Overcast
4:15 AM 39.4 °F 31.4 °F 32.2 °F 75% 30.08 in 10.0 mi SW 13.8 mph - N/A   Overcast
4:35 AM 39.6 °F 31.3 °F 32.0 °F 74% 30.08 in 10.0 mi SW 15.0 mph 20.7 mph N/A   Scattered Clouds
4:55 AM 39.2 °F 30.8 °F 32.0 °F 75% 30.10 in 10.0 mi WSW 15.0 mph - N/A   Clear
5:15 AM 38.8 °F 30.0 °F 32.0 °F 76% 30.10 in 10.0 mi SW 16.1 mph - N/A   Clear
5:35 AM 38.5 °F 29.6 °F 32.0 °F 78% 30.11 in 10.0 mi SW 16.1 mph - N/A   Clear
5:55 AM 37.8 °F 29.4 °F 32.0 °F 80% 30.12 in 10.0 mi SW 13.8 mph - N/A   Clear
6:15 AM 37.2 °F 28.3 °F 32.4 °F 83% 30.14 in 10.0 mi WSW 15.0 mph - N/A   Clear
6:35 AM 37.0 °F 29.3 °F 32.4 °F 83% 30.15 in 10.0 mi WSW 11.5 mph - N/A   Clear
6:55 AM 36.7 °F 28.9 °F 32.0 °F 83% 30.17 in 10.0 mi WSW 11.5 mph - N/A   Clear
7:15 AM 36.1 °F 28.7 °F 32.0 °F 85% 30.19 in 10.0 mi WSW 10.4 mph - N/A   Clear
7:35 AM 35.8 °F 27.3 °F 32.0 °F 86% 30.20 in 10.0 mi WSW 12.7 mph - N/A   Clear
7:55 AM 36.1 °F 26.5 °F 32.0 °F 85% 30.21 in 10.0 mi WSW 16.1 mph - N/A   Clear
8:35 AM 36.3 °F 26.8 °F 32.0 °F 84% 30.23 in 10.0 mi WSW 16.1 mph - N/A   Clear
8:55 AM 36.5 °F 27.4 °F 32.0 °F 84% 30.24 in 10.0 mi WSW 15.0 mph - N/A   Clear
9:15 AM 36.7 °F 28.4 °F 32.0 °F 83% 30.25 in 10.0 mi WSW 12.7 mph - N/A   Clear
9:35 AM 37.2 °F 28.7 °F 32.0 °F 81% 30.25 in 10.0 mi WSW 13.8 mph - N/A   Clear
9:55 AM 37.9 °F 30.5 °F 32.0 °F 79% 30.26 in 10.0 mi WSW 11.5 mph - N/A   Clear
10:15 AM 38.7 °F 31.8 °F 32.0 °F 77% 30.26 in 10.0 mi SW 10.4 mph 16.1 mph N/A   Clear
10:35 AM 38.8 °F 32.1 °F 32.4 °F 78% 30.26 in 10.0 mi WSW 10.4 mph - N/A   Clear
10:55 AM 39.6 °F 33.5 °F 32.5 °F 76% 30.26 in 10.0 mi WSW 9.2 mph - N/A   Clear
11:15 AM 40.5 °F 34.6 °F 32.7 °F 74% 30.27 in 10.0 mi WSW 9.2 mph - N/A   Clear
12:15 PM 42.8 °F 34.8 °F 32.2 °F 66% 30.26 in 10.0 mi West 17.3 mph 25.3 mph N/A   Clear
12:35 PM 43.5 °F 35.5 °F 32.2 °F 64% 30.26 in 10.0 mi West 18.4 mph - N/A   Clear
12:55 PM 44.4 °F 37.2 °F 32.4 °F 63% 30.26 in 10.0 mi West 16.1 mph - N/A   Clear
1:15 PM 44.4 °F 38.6 °F 32.2 °F 62% 30.27 in 10.0 mi West 11.5 mph 18.4 mph N/A   Clear
1:35 PM 45.1 °F 38.8 °F 32.2 °F 60% 30.28 in 10.0 mi West 13.8 mph - N/A   Clear
1:55 PM 45.5 °F 39.2 °F 32.0 °F 59% 30.28 in 10.0 mi West 13.8 mph - N/A   Clear
2:15 PM 45.9 °F 40.4 °F 32.0 °F 58% 30.30 in 10.0 mi West 11.5 mph 18.4 mph N/A   Clear
2:35 PM 46.9 °F - 31.5 °F 55% 30.31 in 10.0 mi West 13.8 mph - N/A   Clear
2:55 PM 47.5 °F - 29.5 °F 50% 30.32 in 10.0 mi West 13.8 mph - N/A   Clear
3:15 PM 48.0 °F - 28.0 °F 46% 30.34 in 10.0 mi West 9.2 mph - N/A   Clear
3:35 PM 47.7 °F - 25.3 °F 42% 30.35 in 10.0 mi West 13.8 mph 20.7 mph N/A   Clear
3:55 PM 46.6 °F - 23.7 °F 41% 30.36 in 10.0 mi WNW 12.7 mph 20.7 mph N/A   Clear
4:15 PM 45.5 °F 39.2 °F 22.3 °F 40% 30.36 in 10.0 mi WNW 13.8 mph - N/A   Clear
4:35 PM 43.7 °F 37.3 °F 22.3 °F 43% 30.36 in 10.0 mi NW 12.7 mph - N/A   Clear
4:55 PM 42.1 °F 35.7 °F 21.7 °F 44% 30.38 in 10.0 mi WNW 11.5 mph - N/A   Clear
5:15 PM 41.4 °F 35.7 °F 21.0 °F 44% 30.39 in 10.0 mi West 9.2 mph - N/A   Clear
5:35 PM 39.9 °F 35.8 °F 21.9 °F 49% 30.39 in 10.0 mi West 5.8 mph - N/A   Clear
5:55 PM 38.7 °F 34.3 °F 22.6 °F 53% 30.40 in 10.0 mi West 5.8 mph - N/A   Clear
6:15 PM 38.3 °F 33.9 °F 22.1 °F 52% 30.40 in 10.0 mi West 5.8 mph - N/A   Clear
6:35 PM 37.8 °F 33.3 °F 22.3 °F 54% 30.41 in 10.0 mi West 5.8 mph - N/A   Clear
6:55 PM 35.4 °F 32.6 °F 22.8 °F 60% 30.41 in 10.0 mi WNW 3.5 mph - N/A   Clear
7:15 PM 34.9 °F 30.8 °F 22.5 °F 61% 30.41 in 10.0 mi West 4.6 mph - N/A   Clear
7:35 PM 34.2 °F 30.0 °F 22.6 °F 63% 30.41 in 10.0 mi West 4.6 mph - N/A   Clear
7:55 PM 34.5 °F 30.4 °F 21.9 °F 60% 30.42 in 10.0 mi West 4.6 mph - N/A   Clear
8:35 PM 34.0 °F 28.8 °F 21.9 °F 61% 30.44 in 10.0 mi West 5.8 mph - N/A   Clear
8:55 PM 33.3 °F 27.9 °F 21.9 °F 63% 30.44 in 10.0 mi WSW 5.8 mph - N/A   Clear
9:15 PM 31.8 °F 26.2 °F 22.5 °F 68% 30.44 in 10.0 mi WSW 5.8 mph - N/A   Clear
9:35 PM 32.2 °F 27.7 °F 22.3 °F 67% 30.45 in 10.0 mi West 4.6 mph - N/A   Clear
9:55 PM 33.4 °F 30.4 °F 22.3 °F 64% 30.45 in 10.0 mi West 3.5 mph - N/A   Clear
10:15 PM 32.9 °F 29.8 °F 21.7 °F 64% 30.45 in 10.0 mi NW 3.5 mph - N/A   Clear
10:35 PM 30.0 °F 25.2 °F 21.9 °F 72% 30.46 in 10.0 mi SSW 4.6 mph - N/A   Clear
10:55 PM 29.3 °F 22.3 °F 24.1 °F 81% 30.48 in 10.0 mi SSW 6.9 mph - N/A   Clear
11:15 PM 28.9 °F 25.2 °F 24.6 °F 84% 30.48 in 10.0 mi SW 3.5 mph - N/A   Clear
11:35 PM 28.6 °F 22.4 °F 24.6 °F 85% 30.50 in 10.0 mi South 5.8 mph - N/A   Clear
11:55 PM 28.4 °F 24.6 °F 24.4 °F 85% 30.51 in 10.0 mi South 3.5 mph - N/A   Clear